Starlink 31723

operational
NORAD ID: 59553 Int'l Des: 2024-074 Owner: SPXS Country: US Constellation: starlink
LEOCIRCULAR

About Starlink 31723

Description loading...

Live Position

Loading 3D Globe...

Upcoming Passes

Altitude History

Altitude vs Time

uPlot chart will show altitude changes over time

Two-Line Element Set

1 59553U 24074V 25302.58364384 .00007140 00000-0 26865-3 0 9999
2 59553 42.9990 3.9181 0000955 276.5557 83.5186 15.27591330 85965
Epoch: Oct 29, 2025 • Age: 38 hours

Current Status

Altitude 483.8 km
Velocity 7.62 km/s
Sub-Earth Point -5.83°S, 74.02°E
Launch Date Apr 18, 2024
Age 1.5 years
Type internet

Technical Details

Classification Payload
Mass 730.00 kg
Dry Mass 700.00 kg
Total Mass 730.00 kg
Length 0.30 m
Diameter 4.10 m
Span 29.00 m
Shape Box + pan
Manufacturer SPXS
Bus Type Starlink V2M
Phase Status In Orbit
Owner/State SPXS/US

Large Constellations

Loading constellations...